Regional Weather Roundup
Issued by NWS

Home | Current Version | Previous Version | Text Only | Print | Product List | Glossary On
Versions: 1 2 3 4 5 6 7 8 9 10 11 12 13 14 15 16 17 18 19 20 21 22 23 24 25 26 27 28 29 30 31 32 33 34 35 36 37 38 39 40 41 42 43 44 45 46 47 48 49 50
000
ASCA42 TJSJ 110810
RWRPR
PUERTO RICO/U.S. VIRGIN ISLANDS HOURLY WEATHER ROUNDUP
NATIONAL WEATHER SERVICE SAN JUAN PR
400 AM AST SUN DEC 11 2016

PRZ001>002-007>008-010-110900-
PUERTO RICO

CITY           SKY/WX    TMP DP  RH WIND       PRES   REMARKS
SAN JUAN LMM   PTCLDY    79  73  83 E7        30.03S
PONCE          CLEAR     73  70  88 CALM      30.04
CEIBA          CLEAR     79  73  83 E7        30.04F
$$

VIZ001>002-110900-
U.S. VIRGIN ISLANDS

CITY           SKY/WX    TMP DP  RH WIND       PRES   REMARKS
CHARLOTTE AMA  CLEAR     79  73  83 E12       30.01F
CHRISTIANSTED  CLEAR     77  72  83 NE14      30.01F
$$

HOURLY WEATHER ROUNDUP FOR THE NEWS MEDIA

CITY           SKY/WX    TMP DP  RH WIND       PRES   REMARKS
ORLANDO        CLEAR     56  52  86 NE5       30.27F
NEW YORK       MOCLDY    30  15  53 W9        30.51R WCI  22
NEWARK         MOCLDY    27  16  63 W5        30.49R WCI  22
CHICAGO        LGT SNOW  24  21  88 SE12      30.20F FOG     WCI  13
HARTFORD       CLEAR     13   9  84 CALM      30.45S
BOSTON         CLEAR     22   8  55 NW5       30.46S WCI  16
DALLAS         CLOUDY    50  39  66 S21G26    30.07F
PHILADELPHIA   CLOUDY    29  15  56 NW3       30.52S
LOS ANGELES    CLOUDY    60  59  96 W7        30.13S
WASHINGTON DC  CLOUDY    24  17  74 CALM      30.52R


USA.gov is the U.S. government's official web portal to all federal, state and local government web resources and services.